Flag for Germany Weather past 2 weeks in Königswinter, North Rhine-Westphalia, Germany

Now
53 °F

Overcast.


Feels Like: 53 °F
Forecast: 47 / 63 °F
Wind: 3 mph from Southwest

Location: Bonn-Hangelar

Current Time: Sep 3, 2015 at 7:16:03 PM

Latest Report: Sep 3, 2015 at 6:00 PM


Visibility: 19 mi

Pressure: 29.98 "Hg

Humidity: 92%

Dew point: 51 °F

Location of KönigswinterLocation

Historic Weather in Königswinter — Graph

°F

Königswinter temperature yesterday

Maximum temperature yesterday: 63 °F (at 3:00 PM)
Minimum temperature yesterday: 51 °F (at 4:00 AM)
Average temperature yesterday: 56 °F

Past Weeks' High & Low Weather Summary

 TemperatureHumidityPressure
High87 °F (Aug 30, 4:00 PM)100% (Aug 24, 1:00 AM)30.24 "Hg (Aug 24, 1:00 AM)
Low51 °F (Sep 2, 4:00 AM)32% (Aug 31, 4:00 PM)29.50 "Hg (Aug 24, 3:00 PM)
Average65 °F76%29.96 "Hg
* Reported Aug 19 6:00 PM — Sep 3 6:00 PM, Königswinter, Weather by CustomWeather, © 2015

Note: Actual official high and low records may vary slightly from our data, if they occured in-between our weather recording intervals... More about our weather records

Advertising

Königswinter weather history for previous 24 hours

 ConditionsComfort  
Time TempWeatherWind HumidityBarometerVisibility
6:00 PM
Thu, Sep 3
53 °FOvercast.3 mph92%29.98 "Hg19 mi
5:00 PM56 °FOvercast.9 mph78%29.96 "Hg19 mi
4:00 PM62 °FScattered clouds.6 mph65%29.94 "Hg15 mi
3:00 PM61 °FOvercast.5 mph77%29.96 "Hg15 mi
2:00 PM60 °FPartly sunny.5 mph77%29.96 "Hg9 mi
1:00 PM57 °FScattered clouds.5 mph76%29.96 "Hg9 mi
12:00 PM57 °FScattered clouds.6 mph85%29.97 "Hg5 mi
11:00 AM56 °FFog.5 mph91%29.97 "Hg4 mi
10:00 AM54 °FFog.6 mph97%29.97 "Hg2 mi
9:00 AM52 °FFog.5 mph99%29.98 "Hg2 mi
8:00 AM51 °FFog.5 mph100%29.98 "Hg1 mi
7:00 AM52 °FFog.5 mph100%29.98 "Hg1 mi
5:00 AM52 °FFog.2 mph99%29.99 "Hg2 mi
4:00 AM53 °FFog.3 mph97%29.99 "Hg3 mi
3:00 AM53 °FFog.2 mph99%30.00 "Hg2 mi
2:00 AM53 °FOvercast.2 mph99%30.00 "Hg2 mi
1:00 AM54 °FOvercast.1 mph97%30.00 "Hg2 mi
11:00 PM
Wed, Sep 2
56 °FDrizzle. Overcast.2 mph95%30.02 "Hg6 mi
10:00 PM56 °FOvercast.2 mph92%30.02 "Hg11 mi
9:00 PM56 °FOvercast.2 mph87%30.02 "Hg12 mi
8:00 PM58 °FOvercast.1 mph82%30.01 "Hg18 mi
7:00 PM57 °FOvercast.3 mph84%30.01 "Hg16 mi
Weather by CustomWeather, © 2015

See weather overviewHow to use our weather pages